EW9733 Weather Reports


time (UTC)temp
C
wind
direction
speed
KPH
gust
KPH
rain 1hr
cm
rain 24hr
cm
rain mn
cm
humidity
%
barometer
mb
20260901183013 20 121 0.0 4.8 0.03 0.13 0.13 87 1016.2
20260901181505 20 82 0.0 1.6 0.03 0.13 0.13 87 1016.1
20260901180003 20 82 0.0 0.0 0.00 0.10 0.10 86 1016.0
20260901174504 20 82 0.0 1.6 0.00 0.10 0.10 85 1015.9
20260901173003 21 96 0.0 4.8 0.00 0.10 0.10 86 1015.7
20260901171502 21 61 0.0 8.0 0.00 0.10 0.10 84 1016.0
20260901170104 21 46 1.6 8.0 0.00 0.10 0.10 82 1016.1
20260901164633 21 71 0.0 3.2 0.00 0.10 0.10 81 1016.0
20260901163100 21 89 0.0 8.0 0.03 0.10 0.10 82 1015.7
20260901161600 21 147 0.0 3.2 0.03 0.10 0.10 83 1016.0
20260901160100 21 101 0.0 8.0 0.03 0.10 0.10 84 1016.0
20260901154554 21 46 0.0 9.7 0.03 0.10 0.10 86 1016.1
20260901153051 21 98 1.6 4.8 0.00 0.08 0.08 89 1016.3
20260901151549 20 131 0.0 4.8 0.00 0.08 0.08 90 1016.2
20260901150045 20 47 0.0 4.8 0.00 0.08 0.08 90 1016.5
20260901144543 20 77 1.6 6.4 0.00 0.08 0.08 90 1016.6
20260901143045 20 52 0.0 4.8 0.03 0.08 0.08 91 1016.6
20260901141552 20 88 0.0 3.2 0.03 0.08 0.08 91 1016.6
20260901140043 19 137 0.0 0.0 0.08 0.08 0.08 91 1016.8
20260901134539 19 137 0.0 0.0 0.08 0.08 0.08 91 1016.7
20260901133041 19 137 0.0 0.0 0.05 0.05 0.05 91 1016.6
20260901131535 19 137 0.0 0.0 0.03 0.03 0.03 90 1016.8
20260901130031 18 137 0.0 0.0 0.00 0.00 0.00 90 1016.6
20260901124530 18 137 0.0 1.6 0.00 0.00 0.00 90 1016.5
20260901123029 18 137 0.0 0.0 0.00 0.00 0.00 90 1016.7
20260901121529 18 137 0.0 0.0 0.00 0.00 0.00 90 1016.5
20260901120028 18 137 0.0 0.0 0.00 0.00 0.00 90 1016.4
20260901114526 18 137 0.0 0.0 0.00 0.00 0.00 90 1016.4
20260901113026 18 137 0.0 0.0 0.00 0.00 0.00 90 1016.3
20260901111525 18 137 0.0 0.0 0.00 0.00 0.00 90 1016.2
20260901110036 18 137 0.0 0.0 0.00 0.00 0.00 90 1016.2
20260901104520 18 137 0.0 0.0 0.00 0.03 0.00 90 1016.1
20260901103020 18 137 0.0 0.0 0.00 0.03 0.00 90 1016.1
20260901101520 18 137 0.0 0.0 0.00 0.03 0.00 89 1015.9
20260901100017 18 137 0.0 1.6 0.00 0.03 0.00 89 1015.8
20260901094525 18 137 0.0 0.0 0.00 0.03 0.00 89 1015.8
20260901093017 18 137 0.0 0.0 0.00 0.03 0.00 89 1015.8
20260901091514 18 137 0.0 1.6 0.00 0.03 0.00 89 1015.9
20260901090014 18 137 0.0 1.6 0.00 0.03 0.00 89 1015.9
20260901084512 18 137 0.0 0.0 0.00 0.03 0.00 89 1015.9
20260901083012 18 137 0.0 0.0 0.00 0.03 0.00 89 1016.1
20260901081512 18 137 0.0 0.0 0.00 0.03 0.00 89 1016.3
20260901080008 18 137 0.0 0.0 0.00 0.03 0.00 89 1016.4
20260901074507 18 137 0.0 1.6 0.00 0.03 0.00 89 1016.4
20260901073015 18 136 0.0 1.6 0.00 0.03 0.00 88 1016.4
20260901071505 18 136 0.0 0.0 0.00 0.03 0.00 88 1016.6
20260901070007 18 136 0.0 1.6 0.00 0.03 0.00 88 1016.5
20260901064509 18 136 0.0 1.6 0.00 0.03 0.00 88 1016.7
20260901063002 18 136 0.0 1.6 0.00 0.03 0.00 87 1016.7
20260901061502 18 136 0.0 1.6 0.00 0.03 0.00 87 1016.7
20260901060001 18 136 0.0 3.2 0.00 0.03 0.00 87 1016.8
20260901054602 18 136 0.0 3.2 0.00 0.03 0.00 86 1016.8
20260901054502 18 136 0.0 3.2 0.00 0.03 0.00 86 1016.7
20260901053120 18 135 0.0 1.6 0.00 0.03 0.00 86 1016.7
20260901051600 18 128 0.0 1.6 0.00 0.03 0.00 86 1016.9
20260901050057 18 127 0.0 4.8 0.00 0.03 0.00 85 1017.0
20260901044555 18 115 0.0 1.6 0.00 0.03 0.00 85 1016.9
20260901043117 18 114 0.0 1.6 0.00 0.03 0.00 84 1016.9
20260901041605 18 116 0.0 1.6 0.00 0.03 0.00 84 1017.1
20260901040101 18 142 0.0 1.6 0.00 0.03 0.00 84 1017.1
20260901034602 18 142 0.0 3.2 0.00 0.23 0.03 84 1017.0
20260901033102 18 141 0.0 3.2 0.00 0.23 0.03 84 1017.0
20260901031550 18 144 0.0 6.4 0.00 0.23 0.03 84 1017.1
20260901030049 18 161 0.0 6.4 0.00 0.23 0.03 84 1017.1
20260901024554 18 130 0.0 6.4 0.00 0.23 0.03 83 1017.0
20260901023047 18 161 0.0 1.6 0.00 0.23 0.03 83 1017.1
20260901021547 19 51 0.0 3.2 0.00 0.23 0.03 83 1017.2
20260901020047 19 155 0.0 8.0 0.00 0.23 0.03 84 1017.2
20260901014546 19 140 0.0 4.8 0.00 0.23 0.03 84 1017.3
20260901013046 19 151 0.0 8.0 0.00 0.23 0.03 84 1017.3
20260901011554 19 163 0.0 4.8 0.00 0.23 0.03 83 1017.2
20260901010046 20 135 1.6 6.4 0.00 0.23 0.03 82 1017.2
20260901004544 20 149 0.0 8.0 0.00 0.23 0.03 81 1017.2
20260901003053 20 146 0.0 6.4 0.00 0.23 0.03 80 1017.1
20260901001544 20 122 0.0 4.8 0.00 0.23 0.03 79 1017.1
20260901000044 20 160 1.6 11.3 0.00 0.23 0.03 77 1017.1
20260831234542 20 167 0.0 11.3 0.00 0.23 0.03 75 1017.1
20260831233041 20 165 0.0 6.4 0.00 0.23 0.03 75 1017.2
20260831231541 20 178 0.0 9.7 0.00 0.23 0.03 74 1017.2
20260831230041 20 173 3.2 9.7 0.00 0.23 0.03 73 1017.2
20260831224540 21 171 0.0 6.4 0.00 0.23 0.03 72 1017.2
20260831223042 21 90 0.0 11.3 0.00 0.23 0.03 71 1017.3
20260831221542 21 156 0.0 8.0 0.00 0.23 0.03 71 1017.3
20260831220038 21 162 3.2 8.0 0.00 0.23 0.03 70 1017.3
20260831214543 21 173 1.6 6.4 0.00 0.23 0.03 70 1017.5
20260831213043 21 185 1.6 8.0 0.00 0.23 0.03 70 1017.4
20260831211537 22 159 3.2 11.3 0.00 0.23 0.03 68 1017.4
20260831210038 22 165 0.0 8.0 0.00 0.23 0.03 68 1017.5
20260831204549 22 157 0.0 8.0 0.00 0.23 0.03 65 1017.6
20260831203054 23 165 3.2 6.4 0.00 0.23 0.03 64 1017.5
20260831201535 22 182 1.6 8.0 0.00 0.23 0.03 65 1017.5
20260831200040 22 170 3.2 9.7 0.00 0.23 0.03 66 1017.5
20260831194541 22 171 1.6 9.7 0.00 0.23 0.03 66 1017.6
20260831193035 22 319 0.0 12.9 0.00 0.23 0.03 65 1017.9
20260831191535 22 138 1.6 9.7 0.00 0.23 0.03 63 1017.7
20260831190050 22 176 1.6 8.0 0.00 0.23 0.03 63 1018.0
20260831184533 23 173 4.8 11.3 0.00 0.23 0.03 63 1018.3